SCP
0 0 0 0 0 0 0 0 0 0 0 0 0 0 0 0 0 0 0 0 0 0 0 0 0 0 0 0 0 0 0 0 0 0 0 0 0 0 0 0 0 0 0
0 0 0 0 0 0 0 0 0 0 0 0 0 0 0 0 0 0 0 0 0 0 0 0 0 0 0 0 0 0 0 0 0 0 0 0 0 0 0 0 0 0 0
0 0 0 0 0 0 0 0 0 0 0 0 0 0 0 0 0 0 0 0 0 0 0 0 0 0 0 0 0 0 0 0 0 0 0 0 0 0 0 0 0 0 0
0 0 0 0 0 0 0 0 0 0 0 0 0 0 0 0 0 0 0 0 0 0 0 0 0 0 0 0 0 0 0 0 0 0 0 0 0 0 0 0 0 0 0
0 0 0 0 0 0 0 0 0 0 0 0 0 0 0 0 0 0 0 0 0 0 0 0 0 0 0 0 0 0 0 0 0 0 0 0 0 0 0 0 0 0 0
0 0 0 0 0 0 0 0 0 0 0 0 0 0 0 0 0 0 0 0 0 0 0 0 0 0 0 0 0 0 0 0 0 0 0 0 0 0 0 0 0 0 0
0 0 0 0 0 0 0 0 0 0 0 0 0 -0 0 0 0 0 0 0 0 0 0 0 0 0 0 0 0 0 0 0 0 0 0 0 0 0 0 0 0 0 0
0 0 0 0 0 0 0 0 0 0 0 0 0 0 0 0 0 0 0 0 0 0 0 0 0 0 0 0 0 0 0 0 0 0 -0 0 0 0 0 0 0 0 0
0 0 0 0 0 0 0 0 0 0 0 0 0 0 0 0 0 0 0 0 0 0 0 0 0 0 0 0 0 0 0 0 0 0 0 -0 -0 -0 -0 0 -0 0 0
0 0 0 0 0 0 0 0 0 0 0 0 0 0 0 0 0 0 0 0 0 0 0 0 0 0 0 0 0 0 0 0 0 0 0 -0 -0 -0 -0 -0 0 -0 -0
0 0 0 0 0 0 0 0 0 0 0 0 0 0 0 0 0 0 0 0 0 0 0 0 0 0 0 0 -0 0 0 0 0 0 0 0 0 0 0 0 0 0 0
0 0 0 0 0 0 0 0 0 0 0 0 0 0 0 0 0 0 0 0 0 0 0 0 0 0 0 0 0 0 0 0 0 0 0 0 0 0 0 0 0 0 0
0 0 0 0 0 0 0 0 0 0 0 0 0 0 0 0 0 0 0 0 0 0 0 0 0 0 0 0 0 0 0 0 0 0 0 0 0 0 0 0 0 0 0
0 0 0 0 0 0 0 0 0 0 0 0 0 0 0 0 0 0 0 0 0 0 0 0 0 0 0 0 0 0 0 0 0 0 0 0 0 0 0 0 0 0 0
0 0 0 0 0 0 0 0 0 0 0 0 0 0 0 0 0 0 0 0 0 0 0 0 0 0 0 0 0 0 0 0 0 0 0 0 0 0 0 0 0 0 0
0 0 0 0 0 0 0 0 0 0 0 0 0 0 0 0 0 0 0 0 0 0 0 0 0 0 0 0 0 0 0 0 0 0 0 0 0 0 0 0 0 0 0
0 0 0 0 0 0 0 0 0 0 0 0 0 0 0 0 0 0 0 0 0 0 0 0 0 0 0 0 0 0 0 0 0 0 0 0 0 0 0 0 0 0 0
0 0 0 0 0 0 0 0 0 0 0 0 0 0 0 0 0 0 0 0 0 0 0 0 0 0 0 0 0 0 0 0 0 0 0 0 0 0 0 0 0 0 0
0 0 0 0 0 0 0 0 0 0 0 0 0 0 0 0 0 0 0 0 0 0 0 0 0 0 0 0 0 0 0 0 0 0 0 0 0 0 0 0 0 0 0
0 0 0 0 0 0 0 0 0 0 0 0 0 0 0 0 0 0 0 0 0 0 0 0 0 0 0 0 0 0 0 0 0 0 0 0 0 0 0 0 0 -0 -0
0 0 0 0 0 0 0 0 0 0 0 0 0 0 0 0 0 0 0 0 0 0 0 0 0 0 0 0 0 0 0 0 0 0 0 -0 0 0 0 0 0 0 0
0 0 0 0 0 0 0 0 0 0 0 0 0 0 0 0 0 0 0 0 0 0 0 0 0 0 0 0 0 0 0 0 0 -0 -0 -0 0 0 0 0 0 0 -0
0 0 0 0 0 0 0 0 0 0 0 0 0 0 0 0 0 0 0 0 0 0 0 0 0 0 0 0 0 0 0 0 -0 0 0 0 0 0 0 -0 -0 -0 0
0 0 0 0 0 0 0 0 0 0 0 0 0 0 0 0 0 0 0 0 0 0 0 0 0 0 0 0 0 0 0 0 0 0 -0 0 0 0 -0 -0 0 -0 0
0 0 0 0 0 0 0 0 0 0 0 0 0 0 0 0 0 0 0 0 0 0 0 0 0 0 0 0 0 0 0 0 0 -0 -0 0 0 0 0 0 0 -0 -0
0 0 0 0 0 0 0 0 0 0 0 0 0 0 0 0 0 0 0 0 0 0 0 0 0 0 0 0 0 0 -0 -0 -0 -0 0 -0 0 0 0 0 -0 -0 0
Wind_Speed_500mb
14 8 14 11 5 6 7 11 13 28 24 22 18 13 14 19 20 21 32 35 42 52 60 63 59 57 48 52 55 51 52 54 52 50 54 53 50 49 48 44 43 41 38
23 21 19 17 13 9 9 13 17 19 22 20 24 28 30 25 31 28 32 43 58 61 57 55 54 49 47 47 51 52 52 55 52 58 57 61 61 60 52 51 51 47 44
21 19 19 12 8 5 6 9 15 20 22 20 13 15 18 24 22 43 51 57 60 59 56 56 57 59 55 49 48 48 50 58 54 56 57 48 64 60 55 46 45 47 45
17 15 13 6 4 5 6 7 7 9 14 17 24 31 26 25 31 33 37 50 53 61 59 60 61 60 54 48 46 44 46 48 59 53 60 67 73 71 60 47 45 48 47
15 14 14 15 13 11 13 16 17 18 26 33 37 36 41 46 54 60 82 50 45 49 52 62 64 62 57 52 59 49 33 35 40 42 45 51 48 51 59 71 46 45 45
15 12 13 14 16 16 16 19 20 20 31 38 43 44 42 48 42 38 45 47 52 53 50 57 58 54 45 29 21 32 32 34 35 35 38 35 27 27 34 35 54 47 38
19 15 13 11 12 16 22 28 32 30 34 41 48 60 36 34 37 45 48 59 59 56 50 54 34 22 19 24 27 26 25 19 19 18 21 19 20 18 19 22 28 34 41
15 13 12 16 19 21 23 26 28 30 29 30 39 41 39 40 45 50 62 62 58 53 46 25 16 9 5 8 23 28 29 26 36 31 29 26 31 32 27 21 19 25 32
6 12 19 22 24 24 25 28 34 39 39 36 36 41 47 50 54 68 68 59 55 38 25 13 11 12 14 16 19 18 16 17 20 18 17 16 14 15 19 21 24 28 41
8 19 26 29 29 29 25 28 38 37 34 32 32 36 42 48 59 62 58 51 39 23 15 13 13 11 9 11 30 18 19 20 20 19 21 23 26 29 29 31 31 34 39
20 28 33 30 28 23 27 34 36 33 30 30 34 39 44 48 50 48 37 26 17 15 16 14 12 19 31 48 26 24 22 23 23 26 29 32 35 39 39 40 42 44 46
27 30 32 27 25 29 35 36 30 33 34 35 39 43 53 39 35 34 25 20 17 16 16 19 24 38 48 31 25 23 23 26 28 31 36 40 44 43 40 40 43 45 47
37 36 34 30 28 36 35 30 30 33 39 44 42 35 31 31 34 28 23 21 20 22 23 25 35 38 33 31 31 31 32 33 36 37 38 41 39 41 40 42 46 47 49
35 33 31 30 37 32 27 29 34 40 44 40 38 35 30 34 36 25 24 26 29 31 35 35 30 35 29 28 27 30 33 36 37 37 37 39 40 42 43 45 47 49 51
32 29 31 31 25 24 30 34 42 42 34 33 34 26 30 29 27 26 28 29 30 32 31 29 27 28 30 28 43 40 36 39 42 42 42 42 44 54 57 51 48 48 52
21 31 28 26 27 31 33 40 43 35 30 29 28 18 21 24 28 28 30 31 32 31 30 30 31 30 29 40 46 50 48 43 44 44 43 43 46 46 48 55 54 49 48
27 27 25 26 34 33 37 43 39 32 29 31 22 22 25 26 27 31 34 33 32 31 32 32 31 29 29 45 50 51 51 44 42 43 45 46 45 47 45 45 47 50 48
27 29 31 36 34 35 41 41 40 36 32 30 26 24 23 27 29 32 32 32 32 32 33 32 31 34 34 49 51 53 47 41 43 44 45 45 46 42 41 42 41 42 45
33 36 38 42 36 39 43 43 42 40 36 33 29 25 26 26 29 30 31 31 33 33 33 32 35 37 38 45 50 50 43 43 45 43 40 40 44 43 45 44 44 45 48
35 39 43 41 36 44 42 41 43 40 35 28 27 26 23 26 27 29 30 31 33 35 34 35 36 38 38 39 45 40 40 42 43 43 40 42 42 42 39 40 46 50 50
36 40 41 41 45 47 44 44 40 37 33 24 24 24 24 24 26 28 31 36 39 38 38 42 42 35 38 42 45 43 39 40 42 42 42 36 38 42 45 50 49 42 43
42 43 48 50 49 49 47 48 43 40 35 35 32 26 23 23 27 30 35 40 41 39 41 40 39 33 42 41 43 47 39 44 45 42 36 38 41 46 47 40 31 33 33
45 48 52 53 51 47 46 48 48 43 37 37 33 26 24 24 26 33 38 37 36 34 36 33 36 37 38 38 43 44 44 44 42 35 38 39 38 33 25 27 25 20 21
49 48 49 52 52 48 44 40 43 39 37 34 33 26 26 27 29 33 31 33 32 31 30 34 36 39 39 37 39 42 44 41 34 36 24 32 26 20 23 21 17 16 17
46 45 46 51 53 48 44 39 36 29 33 34 28 24 24 25 28 28 28 28 26 33 30 30 33 37 36 37 41 44 44 37 35 24 21 20 20 20 21 24 19 17 17
47 47 51 53 54 47 43 32 29 43 35 31 21 22 24 22 21 23 25 32 38 36 33 33 36 31 32 36 36 39 35 30 24 14 16 19 22 22 24 26 26 24 23
Wind_Direction_500mb
164 191 228 228 192 218 200 191 206 230 238 254 258 266 266 274 289 297 297 310 309 310 306 301 296 294 289 286 285 278 274 271 265 269 264 264 259 254 250 250 246 244 240
108 86 86 97 103 132 179 216 224 238 253 267 274 280 288 297 298 310 306 308 304 308 309 305 302 298 293 288 285 284 277 270 263 258 264 266 265 257 254 249 245 238 235
77 66 64 78 91 140 194 231 250 266 278 292 320 328 321 321 312 311 313 309 309 307 305 304 302 300 296 290 285 282 276 274 266 255 250 267 254 261 255 239 239 239 231
56 53 49 27 318 308 313 308 327 2 351 347 335 329 330 324 318 324 319 316 313 311 310 310 307 302 296 290 289 285 278 274 272 267 259 254 259 267 269 247 239 229 228
51 55 59 63 54 44 45 36 18 355 339 335 332 331 326 319 313 307 307 304 309 310 309 307 308 305 301 296 294 286 279 269 271 271 266 259 259 256 257 260 245 239 233
38 52 66 63 53 41 20 0 351 342 334 330 328 327 321 317 318 318 314 312 315 314 313 307 309 304 298 295 288 288 287 276 268 252 253 252 253 246 251 256 257 257 236
56 67 65 45 20 4 348 336 331 332 327 327 323 321 314 320 323 322 319 318 316 314 311 305 302 299 300 303 309 308 309 292 293 307 302 291 286 291 287 280 282 285 275
66 61 20 354 342 336 331 331 328 326 324 321 317 319 319 321 323 320 319 317 314 311 302 297 294 294 297 272 282 293 293 333 312 333 350 346 329 320 327 315 302 292 281
12 354 341 334 327 319 317 320 325 321 318 318 317 316 316 318 320 322 322 317 313 305 293 272 274 279 295 307 313 310 306 314 326 328 317 318 304 281 274 272 266 270 281
319 325 323 324 324 322 316 319 320 315 310 309 313 315 315 317 320 321 321 318 312 297 269 271 280 289 303 293 294 290 294 288 287 288 291 295 294 293 291 282 275 267 267
316 319 321 319 320 323 320 320 319 317 314 315 317 317 318 321 323 323 320 323 317 294 281 275 279 286 282 321 306 287 290 288 288 288 290 292 292 287 281 277 272 270 268
322 320 323 318 317 320 322 318 319 321 320 321 319 319 320 323 326 327 328 323 308 299 285 278 286 290 307 306 293 294 291 289 287 286 288 290 291 283 280 275 272 269 267
326 324 322 317 316 322 319 325 327 325 323 321 321 321 322 321 322 321 317 307 301 288 291 291 298 311 323 318 313 304 298 295 293 292 290 289 285 281 279 276 274 273 271
324 324 319 312 317 316 318 320 325 323 323 325 323 319 315 317 317 301 320 313 312 309 305 308 313 308 310 305 299 301 300 297 294 289 288 285 282 281 281 279 276 276 273
327 326 317 313 314 311 316 321 325 324 322 324 321 315 330 338 340 336 324 317 312 308 308 310 310 310 310 299 302 306 305 299 295 291 288 285 279 272 278 277 274 272 271
323 316 310 308 310 314 321 328 325 321 324 327 321 322 325 325 321 320 320 317 315 314 312 312 312 313 309 294 304 305 304 300 296 293 292 290 290 291 288 285 281 270 265
319 310 313 313 315 317 323 324 322 321 321 319 312 315 316 317 320 320 319 317 319 317 315 313 311 309 307 294 304 305 304 300 296 293 293 293 289 287 283 279 277 275 272
313 313 313 314 314 317 319 319 321 318 314 309 300 305 315 320 319 320 320 320 318 317 316 314 311 309 308 299 310 310 310 300 296 293 291 289 283 281 280 282 279 277 274
312 310 311 310 307 313 316 318 317 310 302 297 293 301 313 314 319 320 322 322 319 318 315 313 312 312 305 302 310 312 310 302 296 294 291 287 285 284 283 282 282 283 281
312 313 310 304 302 310 310 310 311 307 300 293 294 299 301 311 315 317 321 323 322 317 311 310 313 307 310 306 312 319 313 306 306 302 300 296 291 287 288 284 287 287 287
312 315 317 306 305 308 307 305 309 308 302 291 290 292 294 304 312 315 320 321 320 318 311 319 321 321 311 318 319 318 318 311 307 305 302 299 293 292 292 290 290 284 282
315 316 316 313 310 307 306 303 303 307 299 294 289 283 289 301 310 312 319 320 319 314 313 315 320 317 318 322 317 319 325 318 311 305 301 298 291 298 297 298 282 284 296
312 315 316 314 314 311 306 299 303 300 293 292 286 285 285 299 310 314 317 318 317 312 315 317 319 321 323 323 314 325 320 318 314 309 299 301 310 310 317 306 301 299 307
314 316 317 317 316 316 308 302 301 297 300 294 306 279 285 289 309 313 315 319 315 312 319 320 321 323 324 322 323 326 325 326 321 314 316 309 323 345 341 335 324 319 317
314 316 318 319 319 316 307 303 309 311 306 297 286 280 284 299 308 314 315 317 320 311 320 319 322 323 323 321 324 322 328 324 324 331 326 335 354 356 353 359 354 346 339
316 317 320 321 317 314 310 308 307 312 305 296 292 283 289 298 306 314 320 317 320 324 325 323 325 327 321 323 326 329 334 332 340 352 353 359 5 2 1 2 0 360 353
Wind_Speed_850mb
14 8 14 11 5 6 7 11 13 28 24 22 18 13 14 19 20 21 32 35 42 52 60 63 59 57 48 52 55 51 52 54 52 50 54 53 50 49 48 44 43 41 38
23 21 19 17 13 9 9 13 17 19 22 20 24 28 30 25 31 28 32 43 58 61 57 55 54 49 47 47 51 52 52 55 52 58 57 61 61 60 52 51 51 47 44
21 19 19 12 8 5 6 9 15 20 22 20 13 15 18 24 22 43 51 57 60 59 56 56 57 59 55 49 48 48 50 58 54 56 57 48 64 60 55 46 45 47 45
17 15 13 6 4 5 6 7 7 9 14 17 24 31 26 25 31 33 37 50 53 61 59 60 61 60 54 48 46 44 46 48 59 53 60 67 73 71 60 47 45 48 47
15 14 14 15 13 11 13 16 17 18 26 33 37 36 41 46 54 60 82 50 45 49 52 62 64 62 57 52 59 49 33 35 40 42 45 51 48 51 59 71 46 45 45
15 12 13 14 16 16 16 19 20 20 31 38 43 44 42 48 42 38 45 47 52 53 50 57 58 54 45 29 21 32 32 34 35 35 38 35 27 27 34 35 54 47 38
19 15 13 11 12 16 22 28 32 30 34 41 48 60 36 34 37 45 48 59 59 56 50 54 34 22 19 24 27 26 25 19 19 18 21 19 20 18 19 22 28 34 41
15 13 12 16 19 21 23 26 28 30 29 30 39 41 39 40 45 50 62 62 58 53 46 25 16 9 5 8 23 28 29 26 36 31 29 26 31 32 27 21 19 25 32
6 12 19 22 24 24 25 28 34 39 39 36 36 41 47 50 54 68 68 59 55 38 25 13 11 12 14 16 19 18 16 17 20 18 17 16 14 15 19 21 24 28 41
8 19 26 29 29 29 25 28 38 37 34 32 32 36 42 48 59 62 58 51 39 23 15 13 13 11 9 11 30 18 19 20 20 19 21 23 26 29 29 31 31 34 39
20 28 33 30 28 23 27 34 36 33 30 30 34 39 44 48 50 48 37 26 17 15 16 14 12 19 31 48 26 24 22 23 23 26 29 32 35 39 39 40 42 44 46
27 30 32 27 25 29 35 36 30 33 34 35 39 43 53 39 35 34 25 20 17 16 16 19 24 38 48 31 25 23 23 26 28 31 36 40 44 43 40 40 43 45 47
37 36 34 30 28 36 35 30 30 33 39 44 42 35 31 31 34 28 23 21 20 22 23 25 35 38 33 31 31 31 32 33 36 37 38 41 39 41 40 42 46 47 49
35 33 31 30 37 32 27 29 34 40 44 40 38 35 30 34 36 25 24 26 29 31 35 35 30 35 29 28 27 30 33 36 37 37 37 39 40 42 43 45 47 49 51
32 29 31 31 25 24 30 34 42 42 34 33 34 26 30 29 27 26 28 29 30 32 31 29 27 28 30 28 43 40 36 39 42 42 42 42 44 54 57 51 48 48 52
21 31 28 26 27 31 33 40 43 35 30 29 28 18 21 24 28 28 30 31 32 31 30 30 31 30 29 40 46 50 48 43 44 44 43 43 46 46 48 55 54 49 48
27 27 25 26 34 33 37 43 39 32 29 31 22 22 25 26 27 31 34 33 32 31 32 32 31 29 29 45 50 51 51 44 42 43 45 46 45 47 45 45 47 50 48
27 29 31 36 34 35 41 41 40 36 32 30 26 24 23 27 29 32 32 32 32 32 33 32 31 34 34 49 51 53 47 41 43 44 45 45 46 42 41 42 41 42 45
33 36 38 42 36 39 43 43 42 40 36 33 29 25 26 26 29 30 31 31 33 33 33 32 35 37 38 45 50 50 43 43 45 43 40 40 44 43 45 44 44 45 48
35 39 43 41 36 44 42 41 43 40 35 28 27 26 23 26 27 29 30 31 33 35 34 35 36 38 38 39 45 40 40 42 43 43 40 42 42 42 39 40 46 50 50
36 40 41 41 45 47 44 44 40 37 33 24 24 24 24 24 26 28 31 36 39 38 38 42 42 35 38 42 45 43 39 40 42 42 42 36 38 42 45 50 49 42 43
42 43 48 50 49 49 47 48 43 40 35 35 32 26 23 23 27 30 35 40 41 39 41 40 39 33 42 41 43 47 39 44 45 42 36 38 41 46 47 40 31 33 33
45 48 52 53 51 47 46 48 48 43 37 37 33 26 24 24 26 33 38 37 36 34 36 33 36 37 38 38 43 44 44 44 42 35 38 39 38 33 25 27 25 20 21
49 48 49 52 52 48 44 40 43 39 37 34 33 26 26 27 29 33 31 33 32 31 30 34 36 39 39 37 39 42 44 41 34 36 24 32 26 20 23 21 17 16 17
46 45 46 51 53 48 44 39 36 29 33 34 28 24 24 25 28 28 28 28 26 33 30 30 33 37 36 37 41 44 44 37 35 24 21 20 20 20 21 24 19 17 17
47 47 51 53 54 47 43 32 29 43 35 31 21 22 24 22 21 23 25 32 38 36 33 33 36 31 32 36 36 39 35 30 24 14 16 19 22 22 24 26 26 24 23
Wind_Direction_850mb
164 191 228 228 192 218 200 191 206 230 238 254 258 266 266 274 289 297 297 310 309 310 306 301 296 294 289 286 285 278 274 271 265 269 264 264 259 254 250 250 246 244 240
108 86 86 97 103 132 179 216 224 238 253 267 274 280 288 297 298 310 306 308 304 308 309 305 302 298 293 288 285 284 277 270 263 258 264 266 265 257 254 249 245 238 235
77 66 64 78 91 140 194 231 250 266 278 292 320 328 321 321 312 311 313 309 309 307 305 304 302 300 296 290 285 282 276 274 266 255 250 267 254 261 255 239 239 239 231
56 53 49 27 318 308 313 308 327 2 351 347 335 329 330 324 318 324 319 316 313 311 310 310 307 302 296 290 289 285 278 274 272 267 259 254 259 267 269 247 239 229 228
51 55 59 63 54 44 45 36 18 355 339 335 332 331 326 319 313 307 307 304 309 310 309 307 308 305 301 296 294 286 279 269 271 271 266 259 259 256 257 260 245 239 233
38 52 66 63 53 41 20 0 351 342 334 330 328 327 321 317 318 318 314 312 315 314 313 307 309 304 298 295 288 288 287 276 268 252 253 252 253 246 251 256 257 257 236
56 67 65 45 20 4 348 336 331 332 327 327 323 321 314 320 323 322 319 318 316 314 311 305 302 299 300 303 309 308 309 292 293 307 302 291 286 291 287 280 282 285 275
66 61 20 354 342 336 331 331 328 326 324 321 317 319 319 321 323 320 319 317 314 311 302 297 294 294 297 272 282 293 293 333 312 333 350 346 329 320 327 315 302 292 281
12 354 341 334 327 319 317 320 325 321 318 318 317 316 316 318 320 322 322 317 313 305 293 272 274 279 295 307 313 310 306 314 326 328 317 318 304 281 274 272 266 270 281
319 325 323 324 324 322 316 319 320 315 310 309 313 315 315 317 320 321 321 318 312 297 269 271 280 289 303 293 294 290 294 288 287 288 291 295 294 293 291 282 275 267 267
316 319 321 319 320 323 320 320 319 317 314 315 317 317 318 321 323 323 320 323 317 294 281 275 279 286 282 321 306 287 290 288 288 288 290 292 292 287 281 277 272 270 268
322 320 323 318 317 320 322 318 319 321 320 321 319 319 320 323 326 327 328 323 308 299 285 278 286 290 307 306 293 294 291 289 287 286 288 290 291 283 280 275 272 269 267
326 324 322 317 316 322 319 325 327 325 323 321 321 321 322 321 322 321 317 307 301 288 291 291 298 311 323 318 313 304 298 295 293 292 290 289 285 281 279 276 274 273 271
324 324 319 312 317 316 318 320 325 323 323 325 323 319 315 317 317 301 320 313 312 309 305 308 313 308 310 305 299 301 300 297 294 289 288 285 282 281 281 279 276 276 273
327 326 317 313 314 311 316 321 325 324 322 324 321 315 330 338 340 336 324 317 312 308 308 310 310 310 310 299 302 306 305 299 295 291 288 285 279 272 278 277 274 272 271
323 316 310 308 310 314 321 328 325 321 324 327 321 322 325 325 321 320 320 317 315 314 312 312 312 313 309 294 304 305 304 300 296 293 292 290 290 291 288 285 281 270 265
319 310 313 313 315 317 323 324 322 321 321 319 312 315 316 317 320 320 319 317 319 317 315 313 311 309 307 294 304 305 304 300 296 293 293 293 289 287 283 279 277 275 272
313 313 313 314 314 317 319 319 321 318 314 309 300 305 315 320 319 320 320 320 318 317 316 314 311 309 308 299 310 310 310 300 296 293 291 289 283 281 280 282 279 277 274
312 310 311 310 307 313 316 318 317 310 302 297 293 301 313 314 319 320 322 322 319 318 315 313 312 312 305 302 310 312 310 302 296 294 291 287 285 284 283 282 282 283 281
312 313 310 304 302 310 310 310 311 307 300 293 294 299 301 311 315 317 321 323 322 317 311 310 313 307 310 306 312 319 313 306 306 302 300 296 291 287 288 284 287 287 287
312 315 317 306 305 308 307 305 309 308 302 291 290 292 294 304 312 315 320 321 320 318 311 319 321 321 311 318 319 318 318 311 307 305 302 299 293 292 292 290 290 284 282
315 316 316 313 310 307 306 303 303 307 299 294 289 283 289 301 310 312 319 320 319 314 313 315 320 317 318 322 317 319 325 318 311 305 301 298 291 298 297 298 282 284 296
312 315 316 314 314 311 306 299 303 300 293 292 286 285 285 299 310 314 317 318 317 312 315 317 319 321 323 323 314 325 320 318 314 309 299 301 310 310 317 306 301 299 307
314 316 317 317 316 316 308 302 301 297 300 294 306 279 285 289 309 313 315 319 315 312 319 320 321 323 324 322 323 326 325 326 321 314 316 309 323 345 341 335 324 319 317
314 316 318 319 319 316 307 303 309 311 306 297 286 280 284 299 308 314 315 317 320 311 320 319 322 323 323 321 324 322 328 324 324 331 326 335 354 356 353 359 354 346 339
316 317 320 321 317 314 310 308 307 312 305 296 292 283 289 298 306 314 320 317 320 324 325 323 325 327 321 323 326 329 334 332 340 352 353 359 5 2 1 2 0 360 353